Location: *
(2.5500°S, 65.9667°W)
Time: 14:02:55
(UTC+00:00)

H-2A R/B - Pass Details

Date: 29 May 2022
Orbit: 734 x 836 km, 98.2° (Epoch: 30 June)

Event Time Altitude Azimuth Distance (km) Brightness Sun altitude
Rises 22:50:34 0° 184° (S) 3,166 5.0 -7.7°
Reaches altitude 10° 22:52:59 10° 192° (SSW) 2,246 4.3 -8.3°
Maximum altitude 22:57:28 35° 258° (WSW) 1,179 3.6 -9.3°
Drops below altitude 10° 23:02:00 10° 323° (NW) 2,274 5.4 -10.4°
Sets 23:04:29 0° 332° (NNW) 3,211 6.1 -11.0°
